Iemanja — WDE8030 — position and weather

sailwx.info

Track history (hours):
 
Tides and Currents Weather Stations Pressure Air Temp Water Temp Dewpoint Dewpoint Depression Visibility Wind Speed Wind Dir Waves Ship Positions

Iemanja

Owner: Gottlieb, James B, Port Washington, NY. More information available from US FCC via Universal Licensing System and Coast Guard Vessel Documentation Center.

Last reported at 2017-Apr-28 11:19 UTC. Time now 2017-May-23 15:02 UTC.
Position N 40°45' W 073°58'.
Warning: this ship's position is 25 days out of date.

Length 28 m; draft 0.6 m.

Type: Sailing vessel. MMSI: 366215000.

Date/timePositionNaut miles runAvg speedWind from/ knotsBaromVisibWave heightAir tempDewpointWater temp
2017-Apr-28 11:19N 40°45' W 073°58'3 8.5
2017-Apr-28 10:58N 40°42' W 073°60'3 6.6
2017-Apr-28 10:30N 40°40' W 074°02'3 6.4
2017-Apr-28 10:00N 40°36' W 074°02'  
2017-Apr-20 21:05N 18°18' W 064°52'1 8.7
2017-Apr-20 20:59N 18°18' W 064°51'4 8.6
2017-Apr-20 20:29N 18°21' W 064°48'4 9.2
2017-Apr-20 20:00N 18°25' W 064°46'1 0.1
2017-Apr-20 12:33N 18°26' W 064°45'1 8.0
2017-Apr-20 12:28N 18°25' W 064°45'85 2.8
2017-Apr-19 05:46N 18°05' W 063°18'3 9.7
2017-Apr-19 05:27N 18°04' W 063°15'4 9.4
2017-Apr-19 04:59N 18°02' W 063°10'5 9.1
2017-Apr-19 04:28N 18°00' W 063°06'1 0.1
2017-Apr-18 16:50N 18°01' W 063°05'1 3.1
2017-Apr-18 16:27N 18°02' W 063°06'0 0.0
2017-Apr-18 15:57N 18°02' W 063°06'0 0.0
2017-Apr-18 15:26N 18°02' W 063°06'0 0.0
2017-Apr-18 15:00N 18°02' W 063°06'0 0.0
2017-Apr-18 14:30N 18°02' W 063°06'0 0.0
2017-Apr-18 13:30N 18°02' W 063°06'0 0.0
2017-Apr-18 13:00N 18°02' W 063°06'0 0.0
2017-Apr-18 12:30N 18°02' W 063°06'0 0.0
2017-Apr-18 12:00N 18°02' W 063°06'0 0.0
2017-Apr-18 11:30N 18°02' W 063°06'  
Track history (hours):
 
Tides and Currents Weather Stations Pressure Air Temp Water Temp Dewpoint Dewpoint Depression Visibility Wind Speed Wind Dir Waves Ship Positions

Iemanja

Owner: Gottlieb, James B, Port Washington, NY. More information available from US FCC via Universal Licensing System and Coast Guard Vessel Documentation Center.

Last reported at 2017-Apr-28 11:19 UTC. Time now 2017-May-23 15:02 UTC.
Position N 40°45' W 073°58'.
Warning: this ship's position is 25 days out of date.

Length 28 m; draft 0.6 m.

Type: Sailing vessel. MMSI: 366215000.

Date/timePositionNaut miles runAvg speedWind from/ knotsBaromVisibWave heightAir tempDewpointWater temp
2017-Apr-28 11:19N 40°45' W 073°58'3 8.5
2017-Apr-28 10:58N 40°42' W 073°60'3 6.6
2017-Apr-28 10:30N 40°40' W 074°02'3 6.4
2017-Apr-28 10:00N 40°36' W 074°02'  
2017-Apr-20 21:05N 18°18' W 064°52'1 8.7
2017-Apr-20 20:59N 18°18' W 064°51'4 8.6
2017-Apr-20 20:29N 18°21' W 064°48'4 9.2
2017-Apr-20 20:00N 18°25' W 064°46'1 0.1
2017-Apr-20 12:33N 18°26' W 064°45'1 8.0
2017-Apr-20 12:28N 18°25' W 064°45'85 2.8
2017-Apr-19 05:46N 18°05' W 063°18'3 9.7
2017-Apr-19 05:27N 18°04' W 063°15'4 9.4
2017-Apr-19 04:59N 18°02' W 063°10'5 9.1
2017-Apr-19 04:28N 18°00' W 063°06'1 0.1
2017-Apr-18 16:50N 18°01' W 063°05'1 3.1
2017-Apr-18 16:27N 18°02' W 063°06'0 0.0
2017-Apr-18 15:57N 18°02' W 063°06'0 0.0
2017-Apr-18 15:26N 18°02' W 063°06'0 0.0
2017-Apr-18 15:00N 18°02' W 063°06'0 0.0
2017-Apr-18 14:30N 18°02' W 063°06'0 0.0
2017-Apr-18 13:30N 18°02' W 063°06'0 0.0
2017-Apr-18 13:00N 18°02' W 063°06'0 0.0
2017-Apr-18 12:30N 18°02' W 063°06'0 0.0
2017-Apr-18 12:00N 18°02' W 063°06'0 0.0
2017-Apr-18 11:30N 18°02' W 063°06'  

Dump ship's entire track history